Temp
3 3 3 3 3 4 4 4 5 5 5 5 5 6 6 6 7 7 7 7 7 6 1 1 1 1 1 1 -2 -2 -2 -3 -5 -3 -2 -4 -7 -6 -6 -4 -5 -5 -5 -7 -7 -8 -3 -3 -3 -2 -5 -5 -5 -5
3 3 3 3 3 3 4 4 4 4 4 4 5 5 5 5 6 6 6 6 6 5 2 0 -0 -0 -0 -0 0 -2 -2 -2 -1 -5 -8 -8 -6 -11 -10 -5 -7 -4 -5 -5 -4 -3 -7 -7 -6 -6 -5 -6 -7 -6
2 2 2 1 1 0 2 3 3 3 3 3 4 4 4 4 5 5 5 5 5 3 -1 -2 -2 -3 -2 -1 -1 -1 -2 -1 -1 -1 -7 -9 -5 -8 -7 -7 -6 -5 -6 -7 -6 -7 -10 -9 -8 -7 -6 -6 -8 -7
2 2 1 1 0 -0 1 2 2 2 3 3 3 3 3 3 3 4 3 3 3 2 -1 -4 -4 -4 -3 -3 -2 -2 -2 -1 -2 -2 -5 -14 -8 -6 -9 -9 -9 -7 -8 -6 -8 -11 -10 -9 -9 -8 -8 -8 -8 -8
2 2 1 1 -0 0 1 2 2 2 2 2 2 2 3 3 3 2 1 0 0 1 -2 -4 -5 -5 -4 -4 -4 -3 -3 -2 -2 -4 -12 -10 -9 -10 -11 -13 -11 -9 -9 -7 -6 -11 -9 -11 -10 -10 -9 -9 -9 -10
2 2 1 0 1 1 2 2 2 2 2 1 1 1 1 2 2 1 -0 -1 -1 -1 -1 -8 -7 -8 -7 -6 -6 -5 -5 -4 -3 -4 -8 -8 -8 -8 -12 -9 -12 -12 -11 -10 -10 -10 -9 -11 -11 -11 -11 -11 -11 -11
2 0 -0 0 1 1 1 0 -0 0 1 0 1 1 0 0 -0 0 -3 -4 -2 -1 -2 -10 -9 -8 -8 -8 -7 -7 -6 -5 -5 -6 -8 -7 -8 -9 -13 -11 -14 -13 -12 -12 -11 -11 -12 -12 -12 -12 -12 -12 -12 -13
1 -1 -2 -2 -1 -0 0 -1 -2 -0 -0 -0 0 0 -1 -3 -4 -4 -4 -2 -2 -2 -3 -13 -12 -8 -8 -8 -8 -8 -7 -7 -7 -9 -9 -9 -10 -10 -10 -16 -15 -14 -13 -12 -12 -11 -11 -12 -13 -13 -13 -13 -13 -14
-1 -2 -3 -2 -2 -2 -2 -3 -2 -1 -0 -0 -0 -1 -3 -4 -5 -5 -4 -5 -5 -3 -5 -10 -11 -11 -8 -8 -8 -8 -8 -13 -10 -13 -10 -9 -14 -11 -16 -15 -14 -14 -13 -13 -13 -13 -13 -13 -13 -13 -13 -14 -14 -15
-2 -3 -3 -3 -4 -4 -4 -4 -3 -2 -1 -0 -1 -2 -5 -6 -6 -6 -6 -5 -5 -5 -5 -12 -9 -11 -8 -9 -10 -9 -9 -14 -14 -13 -10 -13 -15 -16 -15 -15 -14 -14 -13 -13 -13 -14 -14 -13 -13 -14 -14 -15 -15 -16
-3 -3 -4 -4 -3 -4 -5 -5 -5 -3 -2 -4 -4 -5 -6 -6 -5 -5 -6 -9 -9 -11 -7 -8 -8 -11 -8 -11 -12 -9 -15 -15 -15 -13 -12 -16 -16 -18 -16 -15 -15 -14 -14 -15 -14 -14 -14 -14 -14 -15 -15 -16 -16 -16
-4 -4 -4 -4 -4 -4 -5 -5 -5 -5 -7 -7 -7 -7 -7 -6 -5 -11 -19 -14 -13 -10 -8 -8 -9 -8 -8 -8 -9 -11 -14 -14 -13 -12 -14 -16 -17 -15 -15 -15 -15 -15 -15 -15 -15 -15 -15 -15 -16 -16 -17 -17 -17 -18
-5 -4 -4 -4 -4 -5 -4 -6 -7 -6 -4 -7 -7 -7 -8 -8 -11 -14 -12 -12 -12 -9 -9 -8 -11 -8 -8 -8 -13 -17 -10 -12 -12 -16 -14 -16 -13 -13 -14 -15 -15 -15 -15 -15 -15 -16 -16 -16 -17 -17 -18 -18 -18 -19
-4 -4 -5 -5 -5 -5 -5 -5 -7 -6 -5 -7 -8 -13 -14 -13 -15 -15 -14 -12 -9 -9 -8 -8 -8 -9 -10 -13 -19 -15 -16 -15 -16 -15 -16 -17 -13 -12 -13 -13 -14 -14 -15 -16 -16 -17 -17 -17 -17 -18 -18 -19 -19 -19
-4 -4 -5 -5 -5 -5 -5 -5 -5 -6 -7 -8 -8 -14 -14 -10 -9 -9 -9 -9 -9 -9 -9 -9 -10 -11 -16 -14 -17 -16 -15 -15 -12 -13 -15 -13 -13 -12 -13 -13 -13 -14 -15 -15 -16 -17 -17 -18 -18 -18 -19 -19 -19 -20
-4 -4 -5 -6 -5 -5 -6 -6 -8 -8 -8 -8 -8 -12 -10 -11 -9 -8 -9 -9 -9 -9 -9 -10 -16 -17 -17 -16 -14 -15 -15 -14 -13 -14 -13 -13 -13 -13 -13 -14 -14 -15 -15 -16 -17 -17 -18 -18 -19 -19 -19 -20 -20 -20
-5 -5 -5 -6 -6 -6 -6 -8 -9 -9 -8 -8 -8 -9 -9 -9 -9 -9 -10 -10 -10 -9 -15 -15 -13 -15 -18 -17 -16 -14 -13 -13 -13 -13 -13 -13 -13 -13 -14 -14 -15 -16 -16 -17 -17 -18 -18 -19 -19 -19 -19 -20 -20 -20
-6 -5 -5 -6 -6 -6 -8 -9 -9 -9 -8 -9 -9 -9 -9 -9 -10 -10 -10 -11 -10 -10 -11 -15 -13 -16 -16 -14 -12 -13 -13 -13 -13 -14 -13 -13 -14 -14 -14 -15 -16 -17 -17 -18 -18 -18 -19 -19 -20 -20 -20 -20 -20 -20
-6 -6 -6 -6 -6 -7 -8 -9 -9 -9 -9 -10 -10 -10 -10 -10 -11 -12 -12 -12 -12 -12 -12 -13 -17 -17 -14 -13 -14 -13 -14 -14 -14 -14 -14 -14 -14 -15 -15 -16 -16 -17 -18 -18 -18 -18 -19 -19 -19 -19 -20 -20 -20 -20
-7 -7 -7 -7 -7 -8 -8 -9 -10 -10 -10 -10 -11 -11 -11 -12 -12 -13 -13 -13 -12 -13 -14 -18 -19 -15 -15 -14 -15 -15 -15 -15 -14 -15 -15 -15 -15 -16 -16 -17 -17 -18 -18 -18 -18 -18 -18 -18 -18 -19 -19 -20 -20 -20
-7 -7 -7 -7 -8 -8 -9 -9 -10 -10 -10 -11 -11 -11 -11 -13 -13 -14 -14 -14 -14 -14 -15 -14 -14 -14 -14 -14 -14 -15 -15 -15 -16 -16 -16 -16 -16 -16 -16 -17 -18 -17 -17 -17 -17 -17 -18 -17 -18 -18 -19 -19 -19 -20
-7 -7 -8 -8 -9 -9 -10 -11 -11 -10 -11 -12 -12 -12 -13 -14 -15 -16 -15 -15 -14 -14 -14 -14 -13 -13 -14 -14 -14 -15 -15 -16 -16 -17 -17 -17 -17 -17 -17 -17 -17 -17 -17 -17 -17 -17 -17 -17 -18 -18 -18 -18 -19 -19
-8 -8 -9 -9 -9 -9 -11 -11 -11 -11 -14 -13 -13 -16 -17 -16 -17 -17 -17 -15 -14 -14 -14 -14 -14 -14 -14 -15 -15 -15 -16 -16 -17 -17 -18 -18 -18 -18 -18 -18 -18 -18 -17 -17 -17 -17 -17 -18 -18 -19 -19 -19 -20 -20
-9 -9 -9 -9 -10 -11 -11 -11 -12 -13 -15 -19 -24 -19 -22 -19 -18 -20 -23 -15 -14 -14 -14 -14 -14 -14 -15 -15 -16 -16 -16 -16 -17 -17 -18 -18 -18 -17 -18 -18 -18 -18 -18 -18 -18 -18 -18 -18 -19 -19 -20 -20 -20 -20
-8 -9 -10 -11 -11 -11 -21 -21 -19 -18 -20 -28 -23 -24 -22 -20 -26 -28 -24 -15 -15 -14 -14 -14 -14 -15 -15 -16 -16 -16 -16 -16 -17 -17 -17 -17 -18 -18 -18 -18 -18 -18 -18 -19 -19 -19 -19 -19 -19 -20 -20 -20 -20 -20
-14 -11 -10 -11 -12 -15 -19 -17 -22 -22 -26 -25 -26 -21 -21 -26 -24 -21 -21 -13 -13 -14 -14 -14 -14 -15 -15 -16 -16 -16 -16 -16 -17 -17 -17 -18 -18 -19 -19 -19 -19 -18 -19 -19 -20 -20 -20 -20 -20 -20 -20 -20 -20 -21
-14 -15 -12 -11 -11 -12 -15 -19 -20 -22 -24 -24 -26 -24 -26 -21 -23 -18 -12 -12 -12 -12 -14 -14 -15 -15 -15 -15 -15 -16 -16 -17 -17 -17 -17 -18 -18 -18 -19 -19 -19 -19 -20 -20 -20 -20 -20 -20 -20 -20 -20 -20 -20 -20
-10 -11 -15 -13 -13 -15 -18 -24 -27 -26 -26 -18 -19 -21 -21 -20 -18 -12 -12 -13 -14 -14 -15 -15 -15 -16 -16 -16 -16 -16 -16 -17 -17 -17 -17 -18 -18 -18 -18 -20 -20 -20 -20 -20 -20 -20 -20 -20 -20 -20 -20 -20 -19 -19
-12 -12 -13 -14 -17 -18 -17 -18 -17 -14 -15 -16 -21 -22 -15 -12 -12 -12 -13 -14 -15 -16 -16 -16 -16 -16 -16 -16 -16 -16 -16 -17 -17 -18 -18 -18 -18 -19 -19 -19 -20 -20 -20 -19 -19 -20 -20 -20 -20 -19 -19 -19 -19 -19
-13 -14 -14 -17 -20 -19 -13 -13 -14 -14 -16 -16 -17 -17 -16 -15 -15 -15 -15 -15 -15 -15 -15 -16 -16 -16 -15 -16 -16 -16 -17 -17 -18 -18 -19 -19 -19 -19 -20 -20 -20 -19 -19 -19 -19 -19 -19 -19 -19 -19 -19 -19 -19 -19
-14 -15 -17 -18 -17 -14 -14 -15 -15 -15 -17 -18 -19 -20 -19 -18 -15 -15 -15 -15 -14 -13 -14 -14 -15 -16 -16 -17 -17 -17 -17 -17 -17 -18 -20 -20 -20 -20 -20 -20 -20 -19 -19 -19 -19 -19 -19 -19 -19 -19 -19 -19 -19 -19
-17 -18 -19 -23 -16 -16 -17 -17 -17 -17 -18 -20 -19 -20 -20 -20 -18 -16 -16 -15 -14 -14 -14 -15 -16 -17 -18 -18 -18 -18 -18 -18 -19 -20 -21 -20 -20 -20 -20 -19 -19 -19 -19 -19 -19 -19 -19 -19 -19 -19 -19 -19 -19 -19
-19 -20 -21 -20 -19 -18 -18 -18 -19 -20 -21 -21 -21 -21 -21 -21 -19 -17 -17 -16 -16 -16 -17 -18 -18 -18 -18 -18 -18 -18 -19 -19 -20 -21 -21 -21 -20 -20 -19 -19 -19 -19 -19 -20 -20 -20 -20 -20 -20 -20 -20 -20 -20 -20
Height
1506 1503 1501 1498 1494 1490 1486 1482 1479 1475 1472 1468 1464 1460 1457 1454 1451 1449 1446 1443 1442 1439 1441 1441 1442 1443 1444 1445 1449 1452 1457 1458 1462 1467 1467 1470 1480 1473 1478 1472 1479 1481 1488 1499 1506 1514 1490 1465 1470 1474 1472 1472 1474 1477
1509 1506 1503 1500 1496 1491 1487 1483 1479 1475 1472 1468 1465 1461 1458 1454 1451 1448 1446 1443 1441 1440 1441 1441 1441 1442 1443 1444 1446 1447 1450 1449 1450 1459 1467 1470 1471 1483 1485 1480 1473 1476 1469 1476 1474 1469 1466 1466 1467 1468 1470 1471 1475 1477
1509 1506 1502 1499 1495 1491 1487 1483 1480 1476 1472 1468 1464 1461 1457 1454 1451 1448 1445 1443 1441 1440 1441 1441 1442 1443 1443 1443 1444 1447 1447 1447 1448 1449 1453 1460 1465 1466 1475 1474 1468 1464 1464 1469 1469 1467 1467 1467 1468 1469 1470 1471 1474 1476
1510 1507 1503 1500 1496 1493 1488 1484 1480 1477 1473 1469 1464 1460 1456 1453 1450 1447 1445 1442 1441 1440 1439 1442 1441 1442 1442 1442 1443 1445 1446 1447 1448 1449 1450 1459 1463 1458 1466 1464 1466 1463 1463 1464 1467 1469 1469 1468 1469 1470 1471 1473 1476 1477
1510 1507 1504 1500 1496 1492 1488 1484 1481 1477 1472 1468 1463 1459 1455 1453 1449 1445 1443 1441 1439 1442 1439 1440 1440 1441 1441 1442 1443 1444 1445 1446 1447 1448 1452 1457 1454 1458 1463 1465 1467 1458 1458 1463 1461 1459 1460 1463 1466 1469 1472 1473 1475 1476
1510 1507 1503 1500 1497 1493 1488 1485 1481 1476 1471 1466 1461 1457 1453 1449 1446 1444 1442 1442 1440 1439 1439 1443 1444 1442 1443 1444 1444 1444 1445 1446 1447 1447 1450 1452 1453 1456 1467 1466 1458 1457 1458 1458 1458 1459 1460 1463 1467 1469 1471 1472 1473 1474
1509 1506 1503 1500 1496 1492 1487 1483 1479 1474 1470 1465 1459 1454 1449 1444 1443 1443 1444 1443 1441 1440 1439 1442 1443 1444 1444 1445 1445 1446 1446 1446 1447 1448 1450 1451 1454 1455 1461 1464 1458 1456 1457 1458 1460 1461 1464 1466 1466 1468 1470 1470 1471 1473
1509 1506 1503 1499 1494 1490 1486 1481 1477 1472 1467 1462 1456 1450 1445 1442 1441 1442 1442 1441 1440 1439 1438 1444 1446 1447 1446 1446 1447 1447 1447 1447 1448 1450 1452 1452 1455 1456 1456 1454 1454 1456 1458 1460 1461 1461 1462 1464 1466 1468 1469 1470 1471 1471
1509 1506 1502 1498 1493 1489 1484 1480 1475 1469 1465 1459 1453 1447 1443 1442 1442 1443 1439 1438 1437 1442 1439 1443 1451 1455 1448 1448 1448 1448 1448 1451 1452 1452 1452 1453 1458 1456 1453 1453 1454 1457 1459 1460 1461 1463 1463 1465 1466 1467 1468 1469 1469 1470
1508 1504 1500 1496 1492 1488 1483 1478 1473 1467 1462 1457 1451 1449 1445 1446 1442 1440 1437 1439 1440 1442 1444 1448 1449 1451 1450 1450 1449 1451 1450 1455 1460 1456 1453 1454 1457 1454 1454 1454 1456 1458 1460 1461 1462 1463 1464 1464 1465 1466 1467 1467 1468 1469
1506 1502 1497 1493 1489 1486 1482 1477 1472 1465 1460 1456 1454 1451 1449 1445 1442 1441 1440 1442 1447 1450 1450 1451 1451 1451 1451 1452 1451 1451 1455 1457 1468 1459 1458 1463 1461 1454 1454 1455 1457 1458 1460 1461 1462 1462 1462 1463 1464 1465 1465 1466 1466 1466
1503 1499 1495 1491 1487 1483 1479 1475 1471 1466 1463 1460 1457 1453 1449 1447 1445 1447 1459 1454 1455 1460 1455 1453 1453 1452 1451 1451 1450 1453 1457 1459 1465 1457 1460 1467 1458 1454 1455 1456 1458 1459 1460 1461 1461 1462 1462 1463 1464 1464 1464 1464 1464 1463
1502 1498 1494 1489 1486 1482 1477 1473 1470 1466 1461 1456 1456 1453 1453 1454 1458 1468 1471 1465 1464 1460 1459 1457 1455 1454 1452 1452 1453 1455 1454 1460 1457 1465 1462 1462 1455 1455 1456 1457 1458 1459 1460 1460 1460 1461 1462 1461 1462 1462 1462 1461 1460 1460
1501 1497 1493 1489 1485 1480 1475 1471 1466 1462 1459 1459 1458 1461 1464 1468 1470 1470 1469 1466 1464 1461 1460 1458 1456 1456 1453 1454 1458 1463 1462 1461 1469 1470 1466 1458 1456 1457 1458 1458 1458 1459 1459 1459 1459 1459 1459 1459 1459 1459 1458 1458 1457 1456
1498 1494 1491 1487 1483 1478 1472 1467 1462 1460 1460 1461 1461 1472 1470 1467 1466 1466 1465 1464 1464 1462 1460 1458 1458 1458 1456 1458 1460 1462 1465 1467 1456 1459 1458 1457 1457 1458 1458 1458 1458 1458 1458 1458 1458 1457 1457 1457 1456 1456 1455 1454 1452 1451
1494 1491 1488 1484 1480 1475 1469 1464 1461 1460 1462 1464 1465 1468 1467 1467 1466 1465 1465 1464 1463 1461 1460 1459 1460 1464 1465 1463 1462 1465 1467 1462 1458 1457 1458 1458 1458 1458 1458 1457 1456 1456 1455 1455 1455 1454 1454 1453 1452 1452 1451 1450 1448 1446
1490 1488 1485 1481 1477 1473 1467 1463 1462 1464 1464 1466 1467 1467 1467 1467 1466 1466 1465 1464 1463 1462 1462 1461 1465 1465 1465 1467 1465 1457 1457 1456 1456 1457 1457 1458 1458 1457 1456 1455 1454 1453 1452 1452 1451 1450 1450 1449 1448 1447 1447 1446 1444 1442
1487 1486 1483 1479 1475 1470 1466 1465 1466 1467 1467 1467 1467 1467 1467 1466 1465 1465 1464 1463 1463 1461 1461 1463 1461 1464 1465 1462 1453 1457 1456 1456 1456 1457 1457 1457 1457 1456 1454 1452 1451 1450 1449 1448 1447 1446 1445 1445 1443 1443 1442 1441 1439 1438
1484 1482 1480 1476 1473 1470 1468 1468 1468 1467 1467 1467 1466 1466 1465 1464 1463 1462 1462 1461 1461 1461 1461 1460 1462 1462 1458 1458 1457 1456 1456 1456 1456 1456 1456 1455 1454 1453 1451 1449 1448 1447 1446 1445 1444 1443 1441 1440 1439 1438 1437 1436 1434 1433
1482 1479 1477 1474 1471 1469 1468 1469 1469 1468 1467 1467 1465 1464 1462 1462 1461 1460 1459 1459 1459 1458 1458 1459 1459 1458 1458 1457 1456 1455 1455 1455 1455 1454 1454 1453 1451 1450 1449 1447 1445 1444 1443 1442 1440 1439 1437 1436 1435 1433 1432 1430 1428 1426
1477 1476 1473 1471 1468 1468 1468 1468 1468 1467 1466 1465 1464 1463 1461 1459 1458 1458 1458 1457 1456 1455 1456 1457 1457 1457 1456 1455 1454 1453 1453 1453 1452 1452 1451 1449 1449 1447 1446 1445 1442 1441 1439 1438 1436 1435 1434 1431 1430 1428 1426 1424 1423 1420
1475 1472 1469 1468 1468 1468 1468 1469 1469 1467 1467 1464 1463 1461 1459 1458 1457 1457 1456 1454 1454 1454 1454 1455 1455 1455 1454 1453 1452 1451 1450 1450 1449 1448 1447 1446 1445 1444 1442 1441 1439 1437 1436 1434 1433 1430 1428 1427 1424 1422 1419 1417 1416 1414
1472 1470 1469 1468 1468 1468 1471 1469 1468 1466 1465 1463 1462 1460 1458 1458 1457 1457 1455 1453 1452 1452 1453 1454 1454 1453 1452 1451 1450 1449 1448 1447 1446 1445 1444 1444 1443 1441 1439 1437 1435 1433 1430 1429 1427 1424 1421 1420 1417 1414 1411 1409 1407 1405
1470 1470 1469 1469 1469 1469 1469 1468 1467 1466 1464 1464 1465 1463 1459 1458 1457 1455 1455 1450 1449 1450 1451 1452 1452 1451 1450 1449 1449 1448 1447 1446 1445 1444 1443 1442 1440 1438 1436 1433 1430 1428 1425 1421 1419 1416 1413 1411 1409 1406 1404 1402 1400 1398
1472 1473 1472 1471 1471 1470 1470 1469 1467 1467 1470 1469 1468 1463 1459 1459 1461 1462 1455 1446 1446 1447 1448 1449 1449 1448 1448 1447 1447 1447 1446 1446 1445 1443 1442 1440 1437 1433 1429 1425 1422 1420 1418 1414 1411 1408 1405 1404 1402 1400 1398 1396 1394 1391
1472 1472 1472 1471 1472 1472 1472 1474 1473 1472 1471 1470 1465 1461 1461 1461 1465 1459 1447 1442 1443 1444 1445 1445 1446 1445 1445 1445 1445 1444 1443 1442 1441 1440 1439 1436 1433 1429 1425 1420 1415 1412 1411 1407 1404 1401 1398 1397 1395 1393 1391 1390 1388 1387
1472 1471 1470 1471 1471 1471 1470 1469 1469 1469 1470 1468 1462 1461 1463 1466 1465 1445 1441 1440 1441 1441 1441 1442 1441 1441 1441 1441 1441 1440 1440 1438 1437 1436 1433 1431 1429 1426 1422 1417 1412 1409 1405 1401 1398 1395 1392 1390 1388 1386 1384 1382 1381 1379
1468 1468 1470 1469 1468 1468 1468 1468 1468 1467 1459 1458 1459 1461 1460 1457 1448 1440 1439 1438 1438 1438 1438 1437 1436 1437 1437 1437 1437 1436 1436 1434 1432 1430 1427 1425 1423 1419 1415 1411 1406 1402 1398 1394 1391 1387 1385 1383 1381 1379 1377 1374 1373 1372
1466 1465 1466 1464 1465 1464 1462 1461 1458 1455 1454 1454 1454 1450 1443 1440 1438 1436 1435 1434 1432 1431 1430 1430 1431 1431 1431 1432 1432 1432 1432 1430 1428 1423 1419 1413 1410 1408 1405 1401 1396 1393 1389 1386 1383 1381 1378 1376 1373 1370 1368 1366 1365 1363
1464 1464 1464 1463 1463 1460 1454 1455 1453 1451 1450 1449 1447 1442 1438 1432 1431 1428 1425 1423 1422 1423 1424 1424 1425 1425 1426 1427 1427 1428 1428 1427 1424 1420 1413 1406 1402 1398 1395 1391 1387 1383 1380 1376 1373 1371 1370 1368 1365 1364 1362 1360 1358 1356
1462 1461 1461 1459 1456 1452 1451 1450 1449 1446 1443 1440 1438 1438 1434 1429 1423 1422 1421 1419 1418 1419 1420 1421 1422 1422 1423 1424 1424 1422 1420 1420 1415 1410 1405 1399 1393 1389 1385 1381 1377 1374 1371 1368 1366 1363 1360 1359 1357 1355 1353 1352 1351 1349
1459 1458 1459 1457 1452 1450 1449 1447 1445 1441 1438 1436 1434 1432 1431 1429 1424 1424 1422 1420 1419 1419 1419 1420 1421 1421 1422 1422 1420 1417 1412 1407 1403 1399 1394 1390 1385 1382 1378 1373 1369 1366 1363 1360 1357 1355 1353 1351 1348 1347 1345 1344 1342 1341
1456 1456 1455 1455 1451 1449 1448 1447 1443 1439 1437 1435 1433 1432 1430 1429 1425 1424 1423 1422 1421 1420 1420 1420 1421 1420 1418 1415 1411 1407 1403 1399 1395 1390 1387 1384 1380 1376 1372 1367 1363 1360 1356 1353 1351 1348 1346 1343 1341 1339 1337 1336 1334 1332
Wind_Speed
13 16 18 19 19 19 19 19 19 19 18 18 19 18 18 17 16 15 11 12 8 2 6 7 5 4 4 5 4 8 5 2 3 2 3 3 3 4 3 4 6 7 7 4 3 2 8 6 5 6 2 10 14 13
14 16 17 18 19 20 21 21 21 21 21 19 19 19 18 17 17 16 13 13 11 3 2 4 4 5 5 3 2 10 1 3 6 3 1 3 2 2 2 3 2 1 6 5 8 5 1 2 2 6 8 15 11 11
19 21 22 21 21 23 24 23 24 24 23 23 23 22 21 20 19 17 14 13 10 2 1 3 3 2 3 4 6 3 4 5 4 3 7 2 2 3 3 5 1 2 3 2 3 1 3 6 7 8 11 12 11 8
19 19 19 19 19 21 24 23 23 23 24 24 25 24 23 22 20 18 14 12 6 3 1 1 4 3 2 4 5 6 2 4 5 5 3 3 2 3 2 2 3 3 5 4 3 0 3 8 8 10 10 8 7 5
18 18 19 20 21 22 23 24 24 25 25 26 26 26 26 23 22 18 12 8 5 2 1 2 2 3 2 1 3 3 4 5 4 2 3 2 4 3 2 2 2 4 5 4 5 4 3 3 15 11 9 7 4 3
16 18 19 20 23 25 25 25 25 26 26 27 27 27 27 26 22 13 2 3 6 5 2 1 2 5 7 5 6 3 4 3 2 2 2 3 3 1 3 3 1 3 3 1 2 6 4 14 13 10 8 5 4 4
18 19 18 21 24 27 27 27 27 27 26 28 29 29 28 27 17 2 3 10 8 6 2 2 2 3 3 4 3 2 1 2 2 3 2 3 3 3 3 3 3 6 6 6 8 10 9 10 6 6 5 4 2 1
17 18 20 24 26 27 25 25 26 28 26 28 29 30 25 15 6 3 11 11 8 3 2 3 2 2 2 3 2 3 2 1 3 2 2 3 4 1 3 1 8 7 8 6 5 3 3 7 7 5 3 2 2 2
17 18 19 24 27 26 23 25 28 29 28 29 27 22 11 3 5 15 19 8 5 2 3 3 2 2 2 2 2 2 2 3 1 1 1 3 1 4 2 2 9 10 4 7 8 7 7 5 4 3 3 3 4 4
17 18 21 23 24 27 24 27 30 31 30 25 15 7 3 14 25 9 3 3 4 5 5 3 2 1 1 1 1 1 2 1 1 2 1 2 3 0 2 5 7 8 6 7 6 4 4 4 4 4 5 5 5 6
19 20 23 25 24 21 24 27 28 31 27 21 14 5 16 18 7 4 3 6 7 5 6 5 5 1 1 1 1 2 2 1 2 3 3 2 3 2 5 8 9 8 7 6 4 2 2 3 4 4 5 5 6 7
23 25 23 23 23 21 24 27 29 27 19 18 14 14 8 6 3 5 1 4 4 1 7 4 4 3 2 2 2 1 2 2 3 2 2 3 3 0 7 8 7 6 5 4 2 2 3 3 4 5 6 7 8 9
24 24 24 21 23 26 28 27 23 22 20 8 3 4 6 6 7 5 5 4 3 8 8 7 3 5 2 4 5 3 1 3 2 2 3 3 3 5 8 8 6 4 4 4 4 5 5 6 6 8 9 10 11 12
26 25 25 22 26 30 30 29 23 20 7 4 5 6 4 4 1 3 3 2 4 5 10 8 4 5 3 4 0 4 3 2 2 1 4 2 4 1 1 3 4 4 6 7 7 8 8 9 9 10 11 13 15 16
23 24 23 21 27 32 32 30 20 8 2 2 3 2 2 3 1 3 3 4 5 7 8 4 2 4 3 2 2 3 4 3 3 2 1 3 5 5 5 6 7 8 10 10 10 11 11 12 14 13 13 15 16 17
21 21 23 23 27 31 34 22 9 4 3 3 3 3 1 1 4 2 5 3 6 7 6 2 2 4 3 1 2 4 4 4 1 1 4 3 3 6 7 9 9 10 12 12 12 12 13 14 15 15 14 14 15 16
19 18 22 23 27 30 27 10 4 4 3 1 2 2 2 3 3 2 4 4 7 5 0 2 2 5 0 2 2 1 1 1 5 3 2 3 6 9 12 13 13 13 13 12 13 13 14 15 15 15 14 12 14 13
16 19 20 25 25 28 10 7 3 2 2 2 1 1 2 4 5 5 4 5 4 3 2 2 2 1 3 2 1 0 2 3 3 2 2 2 6 10 12 14 14 14 14 14 15 15 15 15 15 15 14 13 14 13
15 19 22 21 23 16 3 3 2 1 1 2 3 5 5 7 8 8 6 6 5 4 3 2 1 2 0 1 2 5 4 4 4 4 4 5 7 10 12 13 13 12 12 12 13 13 13 14 16 17 17 17 19 18
13 17 17 20 18 4 1 1 2 2 2 2 4 4 5 6 9 9 8 5 4 4 3 1 3 1 2 6 9 10 7 5 7 8 8 8 10 11 12 13 12 12 12 11 11 12 13 14 14 16 17 19 22 24
15 14 17 16 6 1 0 1 1 2 3 4 6 6 4 6 6 4 3 5 3 3 3 3 2 1 3 4 5 5 6 9 9 11 13 16 14 14 15 14 14 13 12 11 11 11 13 17 18 18 19 20 22 24
13 14 10 5 1 1 0 1 3 5 3 4 5 4 5 3 2 1 9 2 3 3 5 4 2 2 5 7 8 9 10 11 14 15 15 15 16 15 17 17 17 16 16 16 17 19 21 21 22 23 25 25 23 24
10 6 2 2 1 1 2 5 2 2 0 2 5 2 2 2 3 7 3 3 4 7 9 4 1 5 7 8 8 8 7 8 8 9 9 11 13 14 16 18 18 19 21 21 22 24 26 26 27 26 27 27 27 28
4 1 1 2 4 1 3 1 2 3 3 4 3 5 3 4 6 1 2 4 6 12 8 3 2 5 4 2 2 5 7 9 11 12 12 14 18 21 22 23 22 22 23 27 27 27 26 26 23 22 21 23 24 24
1 2 2 2 4 3 5 6 6 3 2 2 2 4 3 4 2 2 2 3 11 15 10 6 4 5 4 3 1 6 9 10 10 12 15 19 23 25 26 26 26 24 23 24 26 25 24 21 21 22 22 21 22 23
2 1 1 1 1 1 2 2 2 2 1 3 5 2 2 3 2 5 4 4 12 15 14 8 6 8 8 6 6 3 3 6 10 14 18 22 27 27 28 29 30 28 22 21 23 24 23 22 22 21 22 21 20 21
1 3 2 2 2 3 2 3 3 2 2 4 3 1 3 1 4 4 4 5 6 9 12 11 10 10 10 11 8 5 5 7 12 17 21 24 28 29 27 27 28 28 26 25 24 24 25 24 24 23 24 25 23 20
2 7 4 3 5 5 3 1 2 4 3 4 4 2 5 7 5 3 6 10 8 8 13 16 13 12 16 16 14 13 12 14 18 22 27 30 30 33 36 31 33 32 28 25 25 27 28 28 27 27 27 24 23 23
3 4 3 3 4 5 7 8 6 4 4 7 4 4 8 15 21 24 22 26 30 27 21 19 18 16 19 22 21 20 20 22 27 32 37 40 42 36 36 40 36 31 27 29 26 23 23 24 26 28 29 27 25 26
3 3 2 3 3 4 5 8 7 11 12 14 13 18 26 30 33 31 27 23 20 16 12 12 12 15 18 20 22 23 22 22 23 33 36 40 41 42 42 36 34 33 31 28 28 27 25 25 24 23 25 26 26 24
5 4 4 5 6 6 10 12 16 21 22 19 19 18 25 21 19 8 10 9 7 8 9 10 11 13 16 17 18 19 21 28 38 39 35 35 37 37 37 37 31 28 32 30 23 27 28 27 24 22 22 23 22 21
3 4 2 2 4 8 13 5 6 8 9 6 6 7 7 6 5 5 10 10 7 4 3 4 4 6 6 12 23 32 38 39 39 34 35 35 36 35 32 34 31 26 29 31 27 26 27 24 22 21 21 23 25 23
4 5 5 5 4 3 4 10 4 6 4 3 3 4 3 4 4 3 8 11 10 9 9 8 10 17 27 35 40 40 36 32 33 30 27 26 26 28 30 25 29 28 21 21 25 26 24 21 21 21 22 23 24 24
Wind_Direction
39 31 24 19 15 12 10 9 8 6 4 2 3 3 2 2 3 3 355 1 4 312 176 195 188 169 169 184 152 153 100 225 64 144 155 206 149 222 101 163 177 164 153 190 100 128 279 151 111 172 158 124 150 145
32 23 17 12 11 10 9 8 6 4 2 1 -0 357 356 356 355 354 350 347 345 309 138 207 207 209 204 182 176 173 189 170 173 91 64 98 160 77 119 242 26 272 183 179 183 211 86 167 95 144 152 153 151 156
17 12 10 12 14 11 9 10 8 6 3 -0 358 356 354 352 350 348 343 340 332 323 102 173 164 183 196 205 199 201 221 182 187 159 153 157 177 129 169 236 139 242 174 158 73 118 126 139 146 146 162 173 161 171
7 6 7 4 7 6 9 10 6 3 0 357 353 350 349 347 345 342 338 338 332 298 167 175 199 196 248 229 226 227 243 185 162 161 108 131 145 180 208 177 150 186 121 163 274 272 140 207 188 160 149 151 164 177
2 4 4 6 7 3 2 1 359 355 352 349 347 344 339 340 338 335 325 349 8 313 303 138 155 299 272 303 240 217 198 186 161 124 83 215 144 110 46 66 263 190 185 164 228 180 139 163 179 172 171 171 187 218
3 2 4 6 0 356 353 351 353 349 346 343 341 339 333 329 332 330 292 19 21 19 327 82 209 40 52 75 68 111 154 168 156 128 121 104 102 83 115 209 330 128 124 218 140 146 138 144 159 170 183 184 197 204
3 3 358 357 353 352 350 348 349 348 344 341 337 334 332 324 334 342 33 319 345 336 271 65 34 70 55 54 58 80 113 120 131 117 99 121 135 142 127 214 146 135 117 113 129 131 123 151 160 170 188 187 169 211
359 357 353 345 348 349 347 347 343 343 343 341 336 330 326 326 350 80 350 346 333 312 291 98 288 64 43 34 52 37 41 112 73 117 131 144 128 100 244 212 157 150 140 137 150 192 143 151 154 158 172 190 229 261
355 350 341 337 342 347 344 340 338 339 341 340 336 328 333 26 30 330 335 353 20 344 59 61 97 280 56 55 42 68 16 33 13 112 240 130 326 227 229 164 169 160 149 146 125 119 122 141 155 173 201 239 261 271
345 333 328 330 335 340 342 338 337 336 340 341 342 331 1 347 331 331 33 49 48 42 42 84 24 287 150 238 27 32 38 108 48 267 102 107 256 214 92 132 143 153 136 140 139 143 172 187 204 223 237 249 263 277
340 332 327 327 334 338 330 335 340 339 344 355 344 325 320 328 349 12 49 43 355 31 18 12 21 328 10 65 180 36 193 10 53 267 153 311 298 276 147 138 140 147 158 182 213 223 230 253 253 255 265 277 288 295
342 343 342 338 337 336 338 336 336 342 338 320 303 299 315 342 1 64 340 344 45 17 351 3 352 12 350 332 117 4 129 51 255 296 66 303 264 252 162 163 170 177 179 180 203 264 264 268 275 278 286 292 294 296
349 347 343 343 347 345 338 337 338 328 335 327 315 324 356 354 35 64 357 336 15 349 0 345 339 349 324 8 70 63 71 236 308 48 232 227 314 147 164 180 193 204 223 242 256 262 276 292 298 297 294 293 295 299
338 338 339 339 344 342 340 340 332 333 334 344 3 8 66 2 11 179 203 242 317 324 345 341 311 11 342 32 180 74 244 42 26 4 240 260 61 92 263 273 273 277 268 271 278 281 290 299 304 300 294 294 299 302
327 333 333 328 337 339 338 336 331 339 340 37 16 26 48 353 307 340 343 345 359 338 338 307 316 348 342 62 48 60 11 279 215 232 229 92 49 14 335 307 301 296 291 290 286 284 288 295 298 295 292 297 301 302
322 332 337 332 332 337 338 340 346 26 61 50 67 60 316 10 346 31 9 8 352 340 327 345 76 33 307 120 55 225 137 231 233 95 91 56 357 327 327 323 315 304 295 293 289 289 288 292 294 292 295 300 300 303
320 327 330 334 335 337 340 358 30 49 56 68 79 27 327 298 279 315 327 323 332 333 320 87 32 231 333 7 279 211 204 99 131 122 77 346 328 321 315 311 307 301 297 292 289 290 291 289 289 289 295 298 298 304
314 314 324 335 335 340 353 24 56 41 79 58 17 358 341 295 298 289 289 305 329 344 306 239 143 127 215 211 4 33 220 185 171 191 228 322 321 316 312 309 305 301 297 297 298 296 294 291 287 288 291 296 291 294
317 317 324 329 335 336 355 17 17 348 240 253 257 270 280 283 284 283 286 300 300 263 272 250 60 201 255 43 336 316 284 239 249 238 244 287 315 325 325 318 310 304 302 302 304 306 301 295 293 290 288 287 288 289
306 313 320 324 331 311 311 356 336 302 289 285 277 287 287 276 280 288 298 295 282 222 184 170 202 219 271 290 291 284 283 256 258 278 290 296 308 321 329 320 314 306 305 307 308 310 311 309 307 302 295 288 284 287
314 319 320 326 329 183 348 297 312 322 295 285 279 299 288 283 277 279 261 316 211 192 179 175 183 310 336 341 334 305 270 270 278 288 297 300 303 306 316 319 310 305 303 301 302 305 301 306 312 307 300 293 291 290
310 316 319 332 347 24 19 27 304 291 280 273 296 282 273 272 275 289 312 226 204 180 170 152 116 7 330 315 314 308 302 296 292 291 292 296 302 308 312 317 313 300 292 291 295 299 300 301 300 297 294 295 292 291
318 324 346 360 353 357 267 317 313 279 283 295 305 316 284 299 300 324 265 221 204 180 160 144 42 344 321 311 316 328 344 344 336 320 308 301 308 314 318 317 313 307 301 298 298 297 298 301 299 296 294 294 294 291
343 344 27 42 21 331 313 286 295 295 297 2 27 300 318 316 324 347 242 229 197 179 178 184 330 325 308 339 34 30 28 28 28 18 360 342 329 322 315 310 306 303 303 302 301 300 298 298 299 296 295 294 295 295
318 351 25 35 19 360 16 343 337 16 292 322 341 305 321 331 19 339 241 255 198 191 202 232 287 277 242 240 23 81 76 58 36 16 8 359 353 346 339 331 321 315 311 305 304 302 301 300 299 297 296 296 295 296
80 2 142 177 342 60 213 323 261 248 221 297 240 294 334 70 35 255 237 226 205 208 220 240 271 253 233 211 157 128 46 12 358 352 354 345 343 334 329 330 329 328 333 315 308 303 300 299 300 300 298 299 295 290
65 240 180 190 267 266 261 244 251 199 244 218 243 61 63 355 256 257 239 230 232 261 237 264 273 266 238 207 211 236 277 315 329 333 337 340 345 341 328 319 322 326 322 315 310 304 301 300 299 300 300 301 300 298
232 187 186 213 238 228 208 207 196 223 234 195 160 209 186 201 238 262 284 291 270 262 277 277 269 263 234 230 240 256 276 295 305 312 314 312 314 326 334 324 320 323 316 311 309 307 301 298 297 298 299 299 301 301
233 208 258 245 234 227 226 205 233 236 226 199 191 242 247 263 280 287 293 292 291 291 284 275 269 263 240 242 250 264 280 295 308 316 318 317 317 315 322 323 318 316 316 313 310 304 295 292 295 299 299 297 295 296
235 226 256 232 198 236 234 225 247 268 272 261 263 272 280 285 294 299 296 289 281 275 270 265 255 242 241 249 260 269 282 298 314 323 316 313 311 311 315 320 319 315 315 312 310 308 302 296 288 285 287 287 285 286
264 267 234 236 251 271 278 287 289 288 283 277 276 270 281 299 310 332 354 337 290 269 265 255 250 252 261 274 293 305 312 310 321 321 315 310 314 318 320 320 320 316 313 316 310 304 304 303 300 297 294 292 291 290
251 230 240 277 273 293 306 298 287 274 280 289 281 280 295 283 286 5 2 2 356 345 319 333 352 37 34 347 335 331 327 324 321 316 316 320 319 316 315 317 320 317 309 307 303 303 305 305 300 295 294 294 295 293
271 269 260 274 293 291 305 325 282 302 273 278 289 298 284 274 273 10 19 30 44 59 79 82 14 345 336 329 328 327 324 317 315 317 316 314 314 314 311 309 311 319 326 323 316 312 311 307 300 297 293 293 296 297